Cosmos 1943 - Orbit

View from above orbital plane
View from above orbital plane
View from above satellite
View from above satellite

Ground track
Ground track

The orbit data is extracted from the following two-line orbital elements,

1 19119U 88039A   13139.12003448 -.00000180  00000-0 -68464-4 0  8721
2 19119 071.0041 350.3967 0010880 174.7053 331.5247 14.14842935291315
Epoch (UTC): 19 May 2013 02:52:50
Eccentricity: 0.0010880
inclination: 71.0041°
perigee height: 835 km
apogee height: 851 km
right ascension of ascending node: 350.3967°
argument of perigee: 174.7053°
revolutions per day: 14.14842935
mean anomaly at epoch: 331.5247°
orbit number at epoch: 29131

The dashed part of the orbit path shows where the satellite is in the earth's shadow,  

Developed and maintained by Chris Peat, Heavens-Above GmbH. Please read the updated FAQ before sending e-mail. Imprint. DLR